Location: Newark
(44.5425°N, 10.7801°E)
Time: 10:44:26
(UTC+00:00)

N. Korean satellite - Pass Details

Date: 27 January 2020
Orbit: 456 x 505 km, 97.2° (Epoch: 25 February)

Event Time Altitude Azimuth Distance (km) Brightness Sun altitude
Rises 04:51:32 0° 16° (NNE) 2,545 10.3 -19.6°
Reaches altitude 10° 04:53:37 10° 22° (NNE) 1,669 9.4 -19.2°
Maximum altitude 04:57:08 52° 100° (E) 610 7.4 -18.6°
Drops below altitude 10° 05:00:41 10° 178° (S) 1,682 9.4 -18.0°
Sets 05:02:48 0° 183° (S) 2,566 10.3 -17.6°
